timestamp,surface_pressure_avg,surface_temp_avg,battery_voltage,lat,long
2020-05-29 00:09:01+00:00,243.9514,6.28,13.37,47.84626,-54.09684
2020-05-29 00:19:01+00:00,243.0113,6.28,12.97,47.84626,-54.09684
2020-05-29 00:29:01+00:00,242.4298,6.28,12.97,47.84626,-54.09684
2020-05-29 00:39:01+00:00,248.053,6.28,12.97,47.84626,-54.09684
2020-05-29 00:49:01+00:00,253.9481,6.28,12.97,47.84626,-54.09684
2020-05-29 00:59:01+00:00,257.098,6.26,12.97,47.84626,-54.09684
2020-05-29 01:09:01+00:00,259.2164,6.23,12.97,47.84626,-54.09684
2020-05-29 01:19:01+00:00,271.2314,6.2,12.73,47.84626,-54.09684
2020-05-29 01:29:01+00:00,282.2397,6.2,12.73,47.84626,-54.09684
2020-05-29 01:39:01+00:00,284.2247,6.2,12.73,47.84626,-54.09684
2020-05-29 01:49:01+00:00,284.118,6.2,12.73,47.84626,-54.09684
2020-05-29 01:59:01+00:00,298.5314,6.2,12.73,47.84626,-54.09684
2020-05-29 02:09:01+00:00,307.3847,6.21,12.73,47.84626,-54.09684
2020-05-29 02:19:01+00:00,303.7297,6.23,12.65,47.84626,-54.09684
2020-05-29 02:29:01+00:00,304.3047,6.29,12.65,47.84626,-54.09684
2020-05-29 02:39:01+00:00,321.3997,6.29,12.65,47.84626,-54.09684
2020-05-29 02:49:01+00:00,330.0779,6.29,12.65,47.84626,-54.09684
2020-05-29 02:59:01+00:00,325.9296,6.29,12.65,47.84626,-54.09684
2020-05-29 03:09:01+00:00,332.4263,6.3,12.65,47.84626,-54.09684
2020-05-29 03:19:01+00:00,346.0496,6.3,12.65,47.84626,-54.09684
2020-05-29 03:29:01+00:00,341.6146,6.29,12.65,47.84626,-54.09684
2020-05-29 03:39:01+00:00,335.2379,6.29,12.65,47.84626,-54.09684
2020-05-29 03:49:01+00:00,340.1980000000001,6.29,12.65,47.84626,-54.09684
2020-05-29 03:59:01+00:00,346.0446,6.27,12.65,47.84626,-54.09684
2020-05-29 04:09:01+00:00,342.2296,6.28,12.65,47.84626,-54.09684
2020-05-29 04:19:01+00:00,339.2662,6.28,12.65,47.84626,-54.09684
2020-05-29 04:29:01+00:00,341.73800000000006,6.26,12.65,47.84626,-54.09684
2020-05-29 04:39:01+00:00,339.6013,6.28,12.65,47.84626,-54.09684
2020-05-29 04:49:01+00:00,334.2796,6.28,12.65,47.84626,-54.09684
2020-05-29 04:59:01+00:00,337.598,6.29,12.65,47.84626,-54.09684
2020-05-29 05:09:01+00:00,338.3763,6.3,12.65,47.84626,-54.09684
2020-05-29 05:19:01+00:00,334.083,6.29,12.65,47.84626,-54.09684
2020-05-29 05:29:01+00:00,328.7813,6.3,12.65,47.84626,-54.09684
2020-05-29 05:39:01+00:00,331.348,6.3,12.65,47.84626,-54.09684
2020-05-29 05:49:01+00:00,331.1697,6.3,12.65,47.84626,-54.09684
2020-05-29 05:59:01+00:00,325.4713,6.3,12.65,47.84626,-54.09684
2020-05-29 06:09:01+00:00,322.1197,6.38,12.65,47.84626,-54.09684
2020-05-29 06:19:01+00:00,321.748,6.4,12.65,47.84626,-54.09684
2020-05-29 06:29:01+00:00,313.8113,6.4,12.65,47.84626,-54.09684
2020-05-29 06:39:01+00:00,301.6714,6.4,12.65,47.84626,-54.09684
2020-05-29 06:49:01+00:00,296.4097,6.4,12.65,47.84626,-54.09684
2020-05-29 06:59:01+00:00,291.7896,6.4,12.65,47.84626,-54.09684
2020-05-29 07:09:01+00:00,283.448,6.4,12.65,47.84626,-54.09684
2020-05-29 07:19:01+00:00,272.0097,6.41,12.57,47.84626,-54.09684
2020-05-29 07:29:01+00:00,267.1664,6.43,12.57,47.84626,-54.09684
2020-05-29 07:39:01+00:00,261.6731,6.4,12.57,47.84626,-54.09684
2020-05-29 07:49:01+00:00,253.3714,6.4,12.57,47.84626,-54.09684
2020-05-29 07:59:01+00:00,244.4064,6.4,12.57,47.84626,-54.09684
2020-05-29 08:09:01+00:00,240.5064,6.4,12.57,47.84626,-54.09684
2020-05-29 08:19:01+00:00,236.9314,6.41,12.57,47.84626,-54.09684
2020-05-29 08:29:01+00:00,233.7264,6.44,12.57,47.84626,-54.09684
2020-05-29 08:39:01+00:00,227.5981,6.47,12.57,47.84626,-54.09684
2020-05-29 08:49:01+00:00,223.7964,6.49,12.57,47.84626,-54.09684
2020-05-29 08:59:01+00:00,222.6597,6.5,12.57,47.84626,-54.09684
2020-05-29 09:09:01+00:00,221.4048,6.5,12.57,47.84626,-54.09684
2020-05-29 09:19:01+00:00,219.3731,6.5,12.65,47.84626,-54.09684
2020-05-29 09:29:01+00:00,222.8631,6.5,12.65,47.84626,-54.09684
2020-05-29 09:39:01+00:00,224.2448,6.5,12.65,47.84626,-54.09684
2020-05-29 09:49:01+00:00,221.8315,6.5,12.65,47.84626,-54.09684
2020-05-29 09:59:01+00:00,220.2314,6.52,12.65,47.84626,-54.09684
2020-05-29 10:09:01+00:00,220.6431,6.53,12.65,47.84626,-54.09684
2020-05-29 10:19:01+00:00,220.0531,6.5,12.97,47.84626,-54.09684
2020-05-29 10:29:01+00:00,221.6081,6.5,12.97,47.84626,-54.09684
2020-05-29 10:39:01+00:00,221.9131,6.5,12.97,47.84626,-54.09684
2020-05-29 10:49:01+00:00,220.5164,6.5,12.97,47.84626,-54.09684
2020-05-29 10:59:01+00:00,220.1198,6.5,12.97,47.84626,-54.09684
2020-05-29 11:09:01+00:00,220.2331,6.5,12.97,47.84626,-54.09684
2020-05-29 11:19:01+00:00,222.6931,6.5,13.84,47.84626,-54.09684
2020-05-29 11:29:01+00:00,226.2381,6.5,13.84,47.84626,-54.09684
2020-05-29 11:39:01+00:00,227.3431,6.5,13.84,47.84626,-54.09684
2020-05-29 11:49:01+00:00,227.8347,6.5,13.84,47.84626,-54.09684
2020-05-29 11:59:01+00:00,227.2314,6.5,13.84,47.84626,-54.09684
2020-05-29 12:09:01+00:00,227.9431,6.5,13.84,47.84626,-54.09684
2020-05-29 12:19:01+00:00,230.4131,6.5,14.48,47.84626,-54.09684
2020-05-29 12:29:01+00:00,234.5348,6.5,14.48,47.84626,-54.09684
2020-05-29 12:39:01+00:00,238.1564,6.5,14.48,47.84626,-54.09684
2020-05-29 12:49:01+00:00,240.7814,6.5,14.48,47.84626,-54.09684
2020-05-29 12:59:01+00:00,243.8481,6.5,14.48,47.84626,-54.09684
2020-05-29 13:09:01+00:00,245.6765,6.5,14.48,47.84626,-54.09684
2020-05-29 13:19:01+00:00,247.4681,6.5,14.56,47.84626,-54.09684
2020-05-29 13:29:01+00:00,256.503,6.49,14.56,47.84626,-54.09684
2020-05-29 13:39:01+00:00,260.0631,6.48,14.56,47.84626,-54.09684
2020-05-29 13:49:01+00:00,262.8814,6.48,14.56,47.84626,-54.09684
2020-05-29 13:59:01+00:00,269.1481,6.48,14.56,47.84626,-54.09684
2020-05-29 14:09:01+00:00,279.1481,6.48,14.56,47.84626,-54.09684
2020-05-29 14:19:01+00:00,281.3331,6.47,14.48,47.84626,-54.09684
2020-05-29 14:29:01+00:00,284.8181,6.47,14.48,47.84626,-54.09684
2020-05-29 14:39:01+00:00,292.5198,6.47,14.48,47.84626,-54.09684
2020-05-29 14:49:01+00:00,298.0447,6.4,14.48,47.84626,-54.09684
2020-05-29 14:59:01+00:00,297.5013,6.4,14.48,47.84626,-54.09684
2020-05-29 15:09:01+00:00,301.4496,6.4,14.48,47.84626,-54.09684
2020-05-29 15:19:01+00:00,306.608,6.4,14.4,47.84626,-54.09684
2020-05-29 15:29:01+00:00,310.7413,6.37,14.4,47.84626,-54.09684
2020-05-29 15:39:01+00:00,311.5746,6.38,14.4,47.84626,-54.09684
2020-05-29 15:49:01+00:00,314.8081,6.42,14.4,47.84626,-54.09684
2020-05-29 15:59:01+00:00,317.663,6.49,14.4,47.84626,-54.09684
2020-05-29 16:09:01+00:00,319.9563,6.47,14.4,47.84626,-54.09684
2020-05-29 16:19:01+00:00,320.3697,6.5,14.32,47.84626,-54.09684
2020-05-29 16:29:01+00:00,324.3679,6.54,14.32,47.84626,-54.09684
2020-05-29 16:39:01+00:00,322.1463,6.6,14.32,47.84626,-54.09684
2020-05-29 16:49:01+00:00,319.663,6.6,14.32,47.84626,-54.09684
2020-05-29 16:59:01+00:00,321.508,6.6,14.32,47.84626,-54.09684
2020-05-29 17:09:01+00:00,324.238,6.54,14.32,47.84626,-54.09684
2020-05-29 17:19:01+00:00,319.6313,6.5,14.08,47.84626,-54.09684
2020-05-29 17:29:01+00:00,321.2947,6.4,14.08,47.84626,-54.09684
2020-05-29 17:39:01+00:00,326.4646,6.39,14.08,47.84626,-54.09684
2020-05-29 17:49:01+00:00,322.288,6.4,14.08,47.84626,-54.09684
2020-05-29 17:59:01+00:00,312.8997,6.5,14.08,47.84626,-54.09684
2020-05-29 18:09:01+00:00,313.2013,6.5,14.08,47.84626,-54.09684
2020-05-29 18:19:01+00:00,314.3929,6.5,14.16,47.84626,-54.09684
2020-05-29 18:29:01+00:00,304.6746,6.49,14.16,47.84626,-54.09684
2020-05-29 18:39:01+00:00,297.4147,6.5,14.16,47.84626,-54.09684
2020-05-29 18:49:01+00:00,298.4896,6.5,14.16,47.84626,-54.09684
2020-05-29 18:59:01+00:00,293.808,6.5,14.16,47.84626,-54.09684
2020-05-29 19:09:01+00:00,282.9647,6.63,14.16,47.84626,-54.09684
2020-05-29 19:19:01+00:00,280.488,6.7,13.92,47.84626,-54.09684
2020-05-29 19:29:01+00:00,279.6431,6.6,13.92,47.84626,-54.09684
2020-05-29 19:39:01+00:00,271.0631,6.7,13.92,47.84626,-54.09684
2020-05-29 19:49:01+00:00,257.0114,6.8,13.92,47.84626,-54.09684
2020-05-29 19:59:01+00:00,251.1647,6.82,13.92,47.84626,-54.09684
2020-05-29 20:09:01+00:00,245.6497,6.8,13.92,47.84626,-54.09684
2020-05-29 20:19:01+00:00,238.7848,6.8,14.0,47.84626,-54.09684
2020-05-29 20:29:01+00:00,233.0564,6.8,14.0,47.84626,-54.09684
2020-05-29 20:39:01+00:00,230.2698,6.79,14.0,47.84626,-54.09684
2020-05-29 20:49:01+00:00,223.6364,6.74,14.0,47.84626,-54.09684
2020-05-29 20:59:01+00:00,216.8347,6.79,14.0,47.84626,-54.09684
2020-05-29 21:09:01+00:00,215.3965,6.77,14.0,47.84626,-54.09684
2020-05-29 21:19:01+00:00,213.2114,6.7,13.92,47.84626,-54.09684
2020-05-29 21:29:01+00:00,210.6248,6.75,13.92,47.84626,-54.09684
2020-05-29 21:39:01+00:00,209.5764,6.8,13.92,47.84626,-54.09684
2020-05-29 21:49:01+00:00,210.3214,6.8,13.92,47.84626,-54.09684
2020-05-29 21:59:01+00:00,210.0948,6.8,13.92,47.84626,-54.09684
2020-05-29 22:09:01+00:00,208.1715,6.73,13.92,47.84626,-54.09684
2020-05-29 22:19:01+00:00,206.9231,6.7,13.53,47.84626,-54.09684
2020-05-29 22:29:01+00:00,210.5348,6.69,13.53,47.84626,-54.09684
2020-05-29 22:39:01+00:00,212.8197,6.66,13.53,47.84626,-54.09684
2020-05-29 22:49:01+00:00,211.7448,6.76,13.53,47.84626,-54.09684
2020-05-29 22:59:01+00:00,211.2264,6.8,13.53,47.84626,-54.09684
2020-05-29 23:09:01+00:00,214.2248,6.8,13.53,47.84626,-54.09684
2020-05-29 23:19:01+00:00,215.0381,6.8,13.13,47.84626,-54.09684
2020-05-29 23:29:01+00:00,216.4997,6.8,13.13,47.84626,-54.09684
2020-05-29 23:39:01+00:00,218.0614,6.8,13.13,47.84626,-54.09684
2020-05-29 23:49:01+00:00,219.4414,6.8,13.13,47.84626,-54.09684
2020-05-29 23:59:01+00:00,221.0831,6.8,13.13,47.84626,-54.09684
